This demonstration page uses our WeatherBlox Daily Observations layout. Learn more.

Left ArrowRight Arrow

Hourly Observations for September 7, 2015

Temp ( °F °C ) Dew Point ( °F °C ) Humidity (%) Winds ( mph kmh ) Pressure ( in mb ) Visibility ( mi km ) Precip ( " mm )
12:51 am 00:51 Clear 78 25.6 59 15 52 52 NE 7 11 29.83 1010 10 16.0934 0 0
1:51 am 01:51 Clear 76 24.4 60 15.6 58 58 WSW 5 7 29.83 1010 10 16.0934 0 0
2:51 am 02:51 Clear 73 22.8 61 16.1 66 66 NW 5 7 29.83 1010 10 16.0934 0 0
3:51 am 03:51 Clear 73 22.8 61 16.1 66 66 ENE 3 6 29.83 1010 10 16.0934 0 0
4:51 am 04:51 Clear 72 22.2 61 16.1 68 68 E 3 6 29.84 1011 10 16.0934 0 0
5:51 am 05:51 Clear 72 22.2 58 14.4 61 61 E 7 11 29.86 1011 10 16.0934 0 0
6:51 am 06:51 Sunny 74 23.3 58 14.4 57 57 E 7 11 29.88 1012 10 16.0934 0 0
7:51 am 07:51 Sunny 81 27.2 58 14.4 45 45 ESE 8 13 29.88 1012 10 16.0934 0 0
8:51 am 08:51 Sunny 85 29.4 57 13.9 39 39 ESE 7 11 29.88 1012 10 16.0934 0 0
9:51 am 09:51 Sunny 87 30.6 57 13.9 36 36 SE 6 9 29.88 1012 10 16.0934 0 0
10:51 am 10:51 Sunny 90 32.2 58 14.4 34 34 S 7 11 29.87 1012 10 16.0934 0 0
11:51 am 11:51 Sunny 92 33.3 58 14.4 32 32 WSW 7 11 29.83 1010 10 16.0934 0 0
12:51 pm 12:51 Sunny 94 34.4 58 14.4 30 30 WNW 9 15 29.79 1009 10 16.0934 0 0
1:51 pm 13:51 Sunny 90 32.2 58 14.4 34 34 W 9 15 29.79 1009 10 16.0934 0 0
2:51 pm 14:51 Mostly Cloudy 89 31.7 57 13.9 34 34 W 8 13 29.77 1008 10 16.0934 0 0
3:51 pm 15:51 Sunny 90 32.2 59 15 35 35 WNW 8 13 29.75 1007 10 16.0934 0 0
4:51 pm 16:51 Sunny 93 33.9 57 13.9 30 30 W 8 13 29.74 1007 10 16.0934 0 0
5:51 pm 17:51 Sunny 90 32.2 56 13.3 32 32 NE 9 15 29.75 1008 10 16.0934 0 0
6:51 pm 18:51 Clear 87 30.6 55 12.8 34 34 NE 16 26 29.77 1008 10 16.0934 0 0
7:51 pm 19:51 Clear 85 29.4 54 12.2 35 35 NE 10 17 29.79 1009 10 16.0934 0 0
8:51 pm 20:51 Clear 82 27.8 55 12.8 40 40 SW 5 7 29.81 1009 10 16.0934 0 0
9:51 pm 21:51 Clear 80 26.7 58 14.4 47 47 NNW 3 6 29.81 1010 10 16.0934 0 0
10:51 pm 22:51 Clear 77 25 59 15 54 54 NNE 3 6 29.81 1010 10 16.0934 0 0
11:51 pm 23:51 Clear 76 24.4 58 14.4 54 54 NNW 5 7 29.81 1010 10 16.0934 0 0

Powered by AerisWeather